{"data":{"norad_id":67129,"epoch":"2026-05-25T04:49:27.588864Z","epoch_age_seconds":71779,"freshness":"FRESH","line1":"1 67129U 25299AD  26145.20101376  .00015840  00000+0  58370-3 0  9993","line2":"2 67129  43.0018  97.2371 0001636 268.6006  91.4658 15.27591234 24813","mean_motion":15.27591234,"eccentricity":0.0001636,"inclination_deg":43.0018,"raan_deg":97.2371,"arg_perigee_deg":268.6006,"mean_anomaly_deg":91.4658,"bstar":0.0005837,"rev_number":2481,"period_min":94.266055470177,"perigee_km":481.89297306633,"apogee_km":484.13794215046,"semimajor_km":6861.1524576084,"source":"CELESTRAK","updated_at":"2026-05-25T13:38:21.478861Z"}}